International Skating Union - Official Site

ISU European Allround Speed Skating Championships 2017
January 6-8, 2017

Draw | Lap Times | Index | Classification

Referee: Daniel  CABELDUC  (SWE)
Starter: Julia  MITROFANOVA  (RUS)
StartTime: EndTime: Air Temp: Ice Temp: Humidity:
16:30 18:17 16.1℃ -7.2℃ 48%
Result 5000m Men
Rankings as of Jan 7 2017 6:18PM
Rank: No.: Name: Nation: Time: Behind: Points:
1 14 Sven  Kramer NED NED 6:10.58200m - 18.83 - (18.8)
600m - 47.79 - (28.9)
1000m - 1:17.27 - (29.4)
1400m - 1:47.00 - (29.7)
1800m - 2:16.29 - (29.2)
2200m - 2:45.73 - (29.4)
2600m - 3:15.26 - (29.5)
3000m - 3:44.82 - (29.5)
3400m - 4:14.25 - (29.4)
3800m - 4:43.69 - (29.4)
4200m - 5:12.61 - (28.9)
4600m - 5:41.72 - (29.1)
5000m - 6:10.58 - (28.8)
37.058
2 12 Jan  Blokhuijsen NED NED 6:16.86200m - 18.68 - (18.6)
600m - 47.55 - (28.8)
1000m - 1:16.82 - (29.2)
1400m - 1:46.32 - (29.4)
1800m - 2:15.96 - (29.6)
2200m - 2:45.74 - (29.7)
2600m - 3:15.38 - (29.6)
3000m - 3:45.08 - (29.7)
3400m - 4:15.06 - (29.9)
3800m - 4:45.25 - (30.1)
4200m - 5:15.60 - (30.3)
4600m - 5:45.98 - (30.3)
5000m - 6:16.86 - (30.8)
6.28 37.686
3 18 Sverre Lunde  Pedersen NOR NOR 6:20.17200m - 18.74 - (18.7)
600m - 47.94 - (29.1)
1000m - 1:17.89 - (29.9)
1400m - 1:47.96 - (30.0)
1800m - 2:18.02 - (30.0)
2200m - 2:48.00 - (29.9)
2600m - 3:18.27 - (30.2)
3000m - 3:48.42 - (30.1)
3400m - 4:18.50 - (30.0)
3800m - 4:48.53 - (30.0)
4200m - 5:18.60 - (30.0)
4600m - 5:48.82 - (30.2)
5000m - 6:20.17 - (31.3)
9.59 38.017
4 9 Andrea  Giovannini ITA ITA 6:21.78200m - 18.92 - (18.9)
600m - 48.94 - (30.0)
1000m - 1:19.17 - (30.2)
1400m - 1:49.47 - (30.3)
1800m - 2:19.52 - (30.0)
2200m - 2:49.63 - (30.1)
2600m - 3:19.67 - (30.0)
3000m - 3:49.85 - (30.1)
3400m - 4:20.04 - (30.1)
3800m - 4:50.53 - (30.4)
4200m - 5:21.03 - (30.4)
4600m - 5:51.43 - (30.4)
5000m - 6:21.78 - (30.3)
11.20 38.178
5 3 Bart  Swings BEL BEL 6:21.80200m - 18.83 - (18.8)
600m - 48.36 - (29.5)
1000m - 1:18.41 - (30.0)
1400m - 1:48.38 - (29.9)
1800m - 2:18.40 - (30.0)
2200m - 2:48.49 - (30.0)
2600m - 3:18.71 - (30.2)
3000m - 3:48.92 - (30.2)
3400m - 4:19.12 - (30.1)
3800m - 4:49.48 - (30.3)
4200m - 5:20.00 - (30.5)
4600m - 5:50.64 - (30.6)
5000m - 6:21.80 - (31.1)
11.22 38.180
6 13 Douwe  de Vries NED NED 6:23.00200m - 18.53 - (18.5)
600m - 47.71 - (29.1)
1000m - 1:17.75 - (30.0)
1400m - 1:48.02 - (30.2)
1800m - 2:18.14 - (30.1)
2200m - 2:48.40 - (30.2)
2600m - 3:18.63 - (30.2)
3000m - 3:48.98 - (30.3)
3400m - 4:19.51 - (30.5)
3800m - 4:50.15 - (30.6)
4200m - 5:21.00 - (30.8)
4600m - 5:51.86 - (30.8)
5000m - 6:23.00 - (31.1)
12.42 38.300
7 27 Nils  van der Poel SWE SWE 6:24.57200m - 19.59 - (19.5)
600m - 49.84 - (30.2)
1000m - 1:20.68 - (30.8)
1400m - 1:51.11 - (30.4)
1800m - 2:21.43 - (30.3)
2200m - 2:51.87 - (30.4)
2600m - 3:22.31 - (30.4)
3000m - 3:52.80 - (30.4)
3400m - 4:23.31 - (30.5)
3800m - 4:53.89 - (30.5)
4200m - 5:24.31 - (30.4)
4600m - 5:54.55 - (30.2)
5000m - 6:24.57 - (30.0)
13.99 38.457
8 25 Denis  Yuskov RUS RUS 6:26.89200m - 18.63 - (18.6)
600m - 48.39 - (29.7)
1000m - 1:18.48 - (30.0)
1400m - 1:48.27 - (29.7)
1800m - 2:18.26 - (29.9)
2200m - 2:48.10 - (29.8)
2600m - 3:18.34 - (30.2)
3000m - 3:48.85 - (30.5)
3400m - 4:19.65 - (30.8)
3800m - 4:50.75 - (31.0)
4200m - 5:23.03 - (32.2)
4600m - 5:55.25 - (32.2)
5000m - 6:26.89 - (31.6)
16.31 38.689
9 8 Davide  Ghiotto ITA ITA 6:28.13200m - 19.56 - (19.5)
600m - 49.86 - (30.3)
1000m - 1:20.91 - (31.0)
1400m - 1:51.60 - (30.6)
1800m - 2:22.12 - (30.5)
2200m - 2:52.73 - (30.6)
2600m - 3:22.95 - (30.2)
3000m - 3:53.39 - (30.4)
3400m - 4:23.95 - (30.5)
3800m - 4:54.54 - (30.5)
4200m - 5:25.61 - (31.0)
4600m - 5:57.00 - (31.3)
5000m - 6:28.13 - (31.1)
17.55 38.813
10 11 Nicola  Tumolero ITA ITA 6:29.78200m - 19.34 - (19.3)
600m - 49.84 - (30.5)
1000m - 1:21.01 - (31.1)
1400m - 1:51.77 - (30.7)
1800m - 2:22.09 - (30.3)
2200m - 2:53.03 - (30.9)
2600m - 3:23.50 - (30.4)
3000m - 3:54.14 - (30.6)
3400m - 4:25.05 - (30.9)
3800m - 4:56.20 - (31.1)
4200m - 5:27.04 - (30.8)
4600m - 5:58.33 - (31.2)
5000m - 6:29.78 - (31.4)
19.20 38.978
11 4 Vitaly  Mikhailov BLR BLR 6:32.51200m - 19.90 - (19.9)
600m - 50.53 - (30.6)
1000m - 1:21.76 - (31.2)
1400m - 1:52.79 - (31.0)
1800m - 2:23.74 - (30.9)
2200m - 2:54.61 - (30.8)
2600m - 3:25.68 - (31.0)
3000m - 3:56.51 - (30.8)
3400m - 4:27.60 - (31.0)
3800m - 4:58.65 - (31.0)
4200m - 5:29.95 - (31.3)
4600m - 6:01.26 - (31.3)
5000m - 6:32.51 - (31.2)
21.93 39.251
12 23 Danil  Sinitsyn RUS RUS 6:33.02200m - 19.54 - (19.5)
600m - 49.47 - (29.9)
1000m - 1:20.15 - (30.6)
1400m - 1:50.83 - (30.6)
1800m - 2:21.31 - (30.4)
2200m - 2:51.94 - (30.6)
2600m - 3:22.65 - (30.7)
3000m - 3:53.63 - (30.9)
3400m - 4:24.72 - (31.0)
3800m - 4:56.27 - (31.5)
4200m - 5:28.22 - (31.9)
4600m - 6:00.75 - (32.5)
5000m - 6:33.02 - (32.2)
22.44 39.302
13 5 Sebastian  Druszkiewicz CZE CZE 6:33.73200m - 19.19 - (19.1)
600m - 48.98 - (29.7)
1000m - 1:18.90 - (29.9)
1400m - 1:49.09 - (30.1)
1800m - 2:19.47 - (30.3)
2200m - 2:49.99 - (30.5)
2600m - 3:20.94 - (30.9)
3000m - 3:52.49 - (31.5)
3400m - 4:24.27 - (31.7)
3800m - 4:56.33 - (32.0)
4200m - 5:28.72 - (32.3)
4600m - 6:01.29 - (32.5)
5000m - 6:33.73 - (32.4)
23.15 39.373
14 17 Simen Spieler  Nilsen NOR NOR 6:35.15200m - 19.21 - (19.2)
600m - 50.57 - (31.3)
1000m - 1:21.40 - (30.8)
1400m - 1:52.52 - (31.1)
1800m - 2:23.89 - (31.3)
2200m - 2:55.10 - (31.2)
2600m - 3:26.47 - (31.3)
3000m - 3:57.81 - (31.3)
3400m - 4:28.93 - (31.1)
3800m - 5:00.08 - (31.1)
4200m - 5:31.30 - (31.2)
4600m - 6:03.10 - (31.8)
5000m - 6:35.15 - (32.0)
24.57 39.515
15 16 Sindre  Henriksen NOR NOR 6:35.76200m - 18.68 - (18.6)
600m - 48.55 - (29.8)
1000m - 1:19.25 - (30.7)
1400m - 1:49.95 - (30.7)
1800m - 2:20.75 - (30.8)
2200m - 2:51.85 - (31.0)
2600m - 3:23.19 - (31.3)
3000m - 3:54.66 - (31.4)
3400m - 4:26.65 - (31.9)
3800m - 4:58.27 - (31.6)
4200m - 5:30.25 - (31.9)
4600m - 6:02.72 - (32.4)
5000m - 6:35.76 - (33.0)
25.18 39.576
16 6 Viktor Hald  Thorup DEN DEN 6:36.90200m - 20.40 - (20.4)
600m - 51.15 - (30.7)
1000m - 1:21.80 - (30.6)
1400m - 1:52.46 - (30.6)
1800m - 2:23.00 - (30.5)
2200m - 2:53.63 - (30.6)
2600m - 3:24.41 - (30.7)
3000m - 3:55.69 - (31.2)
3400m - 4:27.90 - (32.2)
3800m - 5:00.48 - (32.5)
4200m - 5:32.83 - (32.3)
4600m - 6:05.14 - (32.3)
5000m - 6:36.90 - (31.7)
26.32 39.690
17 24 Sergey  Trofimov RUS RUS 6:39.71200m - 19.50 - (19.5)
600m - 50.10 - (30.5)
1000m - 1:21.30 - (31.2)
1400m - 1:52.50 - (31.1)
1800m - 2:23.64 - (31.1)
2200m - 2:54.88 - (31.2)
2600m - 3:26.31 - (31.4)
3000m - 3:57.69 - (31.3)
3400m - 4:29.43 - (31.7)
3800m - 5:01.45 - (32.0)
4200m - 5:33.90 - (32.4)
4600m - 6:06.56 - (32.6)
5000m - 6:39.71 - (33.1)
29.13 39.971
18 26 Martin  Hänggi SUI SUI 6:42.25200m - 19.51 - (19.5)
600m - 49.88 - (30.3)
1000m - 1:20.94 - (31.0)
1400m - 1:52.37 - (31.4)
1800m - 2:23.99 - (31.6)
2200m - 2:55.44 - (31.4)
2600m - 3:27.06 - (31.6)
3000m - 3:59.10 - (32.0)
3400m - 4:31.49 - (32.3)
3800m - 5:04.15 - (32.6)
4200m - 5:36.96 - (32.8)
4600m - 6:09.94 - (32.9)
5000m - 6:42.25 - (32.3)
31.67 40.225
19 20 Konrad  Niedzwiedzki POL POL 6:42.89200m - 19.30 - (19.3)
600m - 49.69 - (30.3)
1000m - 1:21.09 - (31.4)
1400m - 1:52.34 - (31.2)
1800m - 2:24.13 - (31.7)
2200m - 2:55.97 - (31.8)
2600m - 3:27.88 - (31.9)
3000m - 3:59.94 - (32.0)
3400m - 4:32.03 - (32.0)
3800m - 5:04.56 - (32.5)
4200m - 5:37.22 - (32.6)
4600m - 6:10.00 - (32.7)
5000m - 6:42.89 - (32.8)
32.31 40.289
20 21 Jan  Szymanski POL POL 6:43.81200m - 19.33 - (19.3)
600m - 50.35 - (31.0)
1000m - 1:21.10 - (30.7)
1400m - 1:52.47 - (31.3)
1800m - 2:24.05 - (31.5)
2200m - 2:55.54 - (31.4)
2600m - 3:27.06 - (31.5)
3000m - 3:59.05 - (31.9)
3400m - 4:31.10 - (32.0)
3800m - 5:03.38 - (32.2)
4200m - 5:36.51 - (33.1)
4600m - 6:10.48 - (33.9)
5000m - 6:43.81 - (33.3)
33.23 40.381
21 7 Konrád  Nagy HUN HUN 7:04.02200m - 20.04 - (20.0)
600m - 51.26 - (31.2)
1000m - 1:23.31 - (32.0)
1400m - 1:55.48 - (32.1)
1800m - 2:27.72 - (32.2)
2200m - 2:59.94 - (32.2)
2600m - 3:32.63 - (32.6)
3000m - 4:06.09 - (33.4)
3400m - 4:40.23 - (34.1)
3800m - 5:14.87 - (34.6)
4200m - 5:50.75 - (35.8)
4600m - 6:27.11 - (36.3)
5000m - 7:04.02 - (36.9)
53.44 42.402
22 1 Linus  Heidegger AUT AUT DQ200m - 19.72 - (19.7)
600m - 50.61 - (30.8)
1000m - 1:21.36 - (30.7)
1400m - 1:52.15 - (30.7)
1800m - 2:22.82 - (30.6)
2200m - 2:53.47 - (30.6)
2600m - 3:24.01 - (30.5)
3000m - 3:54.51 - (30.5)
3400m - 4:24.89 - (30.3)
3800m - 4:55.50 - (30.6)
4200m - 5:26.22 - (30.7)
4600m - 5:57.31 - (31.0)
5000m - 6:28.73 - (31.4)
-